Location: Newark
(49.2191°N, 12.6671°E)
Time: 21:06:51
(UTC+00:00)

Transit 2A - Pass Details

Date: 27 January 2020
Orbit: 600 x 959 km, 66.7° (Epoch: 22 February)

Event Time Altitude Azimuth Distance (km) Brightness Sun altitude
Exits shadow 03:51:55 15° 172° (S) 1,940 8.1 -28.6°
Drops below altitude 10° 03:52:55 10° 169° (SSE) 2,304 8.5 -28.4°
Sets 03:55:30 0° 163° (SSE) 3,290 9.4 -28.0°
